Location: Southlake
(32.9412°N, 97.1342°W)
Time: 18:46:11
(UTC+00:00)

ISS - Visible Passes

Search period start: 09 December 2022 00:00
Search period end: 19 December 2022 00:00
Orbit: 414 x 420 km, 51.6° (Epoch: 09 December)

Date Brightness Start Highest point End Pass type
(mag) Time Alt. Az. Time Alt. Az. Time Alt. Az.
10 Dec -0.4 00:43:01 10° W 00:44:33 13° SW 00:46:04 10° SSW visible
10 Dec -1.0 23:53:42 10° WNW 23:56:27 24° SW 23:59:12 10° S visible
14 Dec 0.0 12:33:37 10° SE 12:34:40 11° SE 12:35:44 10° ESE visible
16 Dec -2.1 12:31:09 10° SSW 12:34:17 38° SE 12:37:25 10° ENE visible
17 Dec -1.0 11:43:28 10° S 11:45:57 20° SE 11:48:27 10° E visible
18 Dec -0.3 10:57:22 10° SE 10:57:39 10° SE 10:57:56 10° ESE visible
18 Dec -3.7 12:30:42 10° WSW 12:33:59 55° NW 12:37:17 10° NE visible
